TimeEST,TemperatureF,Dew PointF,Humidity,Sea Level PressureIn,VisibilityMPH,Wind Direction,Wind SpeedMPH,Gust SpeedMPH,PrecipitationIn,Events,Conditions,WindDirDegrees,DateUTC
12:51 AM,17.6,-14.8,23,-9999,120.0,WNW,6.9,-,N/A,,Partly Cloudy,300,2012-11-05 05:51:00
1:47 AM,15.8,-11.2,30,-9999,120.0,WNW,17.3,-,N/A,,Partly Cloudy,290,2012-11-05 06:47:00
2:50 AM,15.8,-9.4,32,-9999,120.0,West,18.4,-,N/A,,Clear,280,2012-11-05 07:50:00
3:52 AM,15.8,-5.8,38,-9999,120.0,WNW,13.8,-,N/A,,Clear,290,2012-11-05 08:52:00
4:48 AM,8.6,8.6,100,-9999,0.0,WNW,18.4,-,N/A,Fog,Light Freezing Fog,300,2012-11-05 09:48:00
5:51 AM,8.6,8.6,100,-9999,0.1,WNW,19.6,-,N/A,Fog,Light Freezing Fog,300,2012-11-05 10:51:00
6:56 AM,8.6,8.6,100,-9999,0.0,NW,26.5,-,N/A,Fog,Light Freezing Fog,310,2012-11-05 11:56:00
7:53 AM,8.6,8.6,100,-9999,0.1,WNW,26.5,-,N/A,Fog-Snow,Light Snow,300,2012-11-05 12:53:00
8:52 AM,8.6,8.6,100,-9999,0.1,WNW,31.1,-,N/A,Fog-Snow,Light Snow,300,2012-11-05 13:52:00
9:55 AM,8.6,8.6,100,-9999,0.1,NW,29.9,-,N/A,Fog-Snow,Light Snow,310,2012-11-05 14:55:00
10:54 AM,6.8,6.8,100,-9999,0.1,WNW,35.7,-,N/A,Fog,Light Freezing Fog,300,2012-11-05 15:54:00
11:51 AM,6.8,6.8,100,-9999,0.1,WNW,34.5,42.6,N/A,Fog-Snow,Light Snow,300,2012-11-05 16:51:00
12:50 PM,6.8,6.8,100,-9999,0.1,WNW,35.7,48.3,N/A,Fog-Snow,Light Snow,300,2012-11-05 17:50:00
1:51 PM,6.8,6.8,100,-9999,0.1,WNW,35.7,44.9,N/A,Fog-Snow,Light Snow,300,2012-11-05 18:51:00
2:52 PM,5.0,5.0,100,-9999,0.1,WNW,36.8,43.7,N/A,Fog-Snow,Light Snow,300,2012-11-05 19:52:00
3:49 PM,5.0,5.0,100,-9999,0.1,WNW,36.8,-,N/A,Fog-Snow,Light Snow,300,2012-11-05 20:49:00
4:49 PM,6.8,6.8,100,-9999,0.0,WNW,44.9,-,N/A,Fog-Snow,Light Snow,300,2012-11-05 21:49:00
5:50 PM,6.8,6.8,100,-9999,0.0,WNW,44.9,-,N/A,Fog-Snow,Snow,300,2012-11-05 22:50:00
6:54 PM,6.8,6.8,100,-9999,0.0,NW,40.3,47.2,N/A,Fog-Snow,Light Snow,310,2012-11-05 23:54:00
7:56 PM,6.8,6.8,100,-9999,0.0,NW,43.7,-,N/A,Fog-Snow,Light Snow,310,2012-11-06 00:56:00
8:53 PM,5.0,5.0,100,-9999,0.0,NW,46.0,-,N/A,Fog-Snow,Light Snow,310,2012-11-06 01:53:00
9:55 PM,5.0,5.0,100,-9999,0.0,WNW,46.0,52.9,N/A,Fog-Snow,Blowing Snow,300,2012-11-06 02:55:00
10:53 PM,5.0,5.0,100,-9999,0.0,WNW,43.7,50.6,N/A,Fog-Snow,Light Snow,300,2012-11-06 03:53:00
11:51 PM,5.0,5.0,100,-9999,0.0,NW,41.4,50.6,N/A,Fog-Snow,Light Snow,310,2012-11-06 04:51:00